Le nostre stazioni meteo in Italia

Pubblicità
Il mio iltempo24.it
Roma/Ciampino, Italia (16239): Temperatura & dewpoint: 16.11.2019 08:00:00 - 22.11.2019 08:00:00 (CET)Roma/Ciampino, Italia (16239): velocità del vento: 16.11.2019 08:00:00 - 22.11.2019 08:00:00 (CET)Roma/Ciampino, Italia (16239): direzione del vento: 16.11.2019 08:00:00 - 22.11.2019 08:00:00 (CET)Roma/Ciampino, Italia (16239): reduced air pressure: 16.11.2019 08:00:00 - 22.11.2019 08:00:00 (CET)Roma/Ciampino, Italia (16239): visibility: 16.11.2019 08:00:00 - 22.11.2019 08:00:00 (CET)Roma/Ciampino, Italia (16239): precipitazioni: 16.11.2019 08:00:00 - 22.11.2019 08:00:00 (CET)
Data & Tempo tt [°C] td [°C] ff [km/h] ff [kn] dd ppp [hPa] vv [km] rr [mm]
22.11.2019 08:00:00 10,0 9,0 8 4 E - 10 -
22.11.2019 07:00:00 9,6 8,7 8 4 E 1012,7 10 -
22.11.2019 06:00:00 10,0 8,0 8 4 NO - 10 -
22.11.2019 05:00:00 10,0 8,0 4 2 - - 10 -
22.11.2019 04:00:00 10,3 7,3 4 2 N 1012,4 - 0,0
22.11.2019 03:00:00 13,0 7,0 11 6 SE - 10 -
22.11.2019 02:00:00 - - - - - - - -
22.11.2019 01:00:00 12,6 6,2 9 5 SE 1012,3 10 -
22.11.2019 00:00:00 - - - - - - - -
21.11.2019 23:00:00 11,0 6,0 11 6 E - 10 -
21.11.2019 22:00:00 11,3 5,6 13 7 E 1012,6 10 0,0
21.11.2019 21:00:00 13,0 6,0 13 7 SE - 10 -
21.11.2019 20:00:00 13,0 6,0 16 9 SE - 10 -
21.11.2019 19:00:00 12,4 6,6 16 9 ESE 1012,4 10 -
21.11.2019 18:00:00 12,0 7,0 21 11 SE - 10 -
21.11.2019 17:00:00 11,0 9,0 9 5 E - 10 -
21.11.2019 16:00:00 11,6 9,0 9 5 E 1012,6 10 0,0
21.11.2019 15:00:00 12,0 9,0 9 5 SE - 9 -
21.11.2019 14:00:00 11,0 9,0 9 5 S - 8 -
21.11.2019 13:00:00 11,8 9,1 9 5 - 1013,2 10 -
21.11.2019 12:00:00 14,0 6,0 13 7 SE - 10 -
21.11.2019 11:00:00 14,0 8,0 18 10 SE - 10 -
21.11.2019 10:00:00 14,0 8,7 8 4 E 1013,9 10 0,0
21.11.2019 09:00:00 11,0 8,0 8 4 E - 10 -
21.11.2019 08:00:00 12,0 7,0 11 6 SE - 10 -
21.11.2019 07:00:00 11,8 7,1 11 6 SSE 1013,2 10 -
21.11.2019 06:00:00 10,0 7,0 13 7 ESE - 10 -
21.11.2019 05:00:00 10,0 7,0 11 6 SSO - 10 -
21.11.2019 04:00:00 9,6 7,0 9 5 ENE 1013,6 10 0,0
21.11.2019 03:00:00 10,0 7,0 9 5 E - 10 -
21.11.2019 02:00:00 10,0 8,0 9 5 E - 10 -
21.11.2019 01:00:00 9,6 7,9 8 4 NE 1014,8 10 -
21.11.2019 00:00:00 11,0 9,0 4 2 E - 10 -
20.11.2019 23:00:00 11,0 10,0 8 4 E - 10 -
20.11.2019 22:00:00 11,1 9,6 8 4 S 1015,5 9 0,0
20.11.2019 21:00:00 11,0 9,0 9 5 SSO - 9 -
20.11.2019 20:00:00 11,0 9,0 9 5 SE - 10 -
20.11.2019 19:00:00 11,8 9,6 5 3 SSE 1014,4 - -
20.11.2019 18:00:00 13,0 10,0 11 6 S - 10 -
20.11.2019 17:00:00 - - - - - - - -
20.11.2019 16:00:00 14,9 8,8 8 4 SSO 1013,7 10 0,0
20.11.2019 15:00:00 14,0 9,0 11 6 SSE - 10 -
20.11.2019 14:00:00 15,0 9,0 11 6 SSO - 10 -
20.11.2019 13:00:00 15,2 10,1 8 4 S 1013,5 10 -
20.11.2019 12:00:00 13,0 9,0 9 5 SSO - 10 -
20.11.2019 11:00:00 14,0 9,0 4 2 - - 10 -
20.11.2019 10:00:00 12,7 9,7 4 2 - 1013,5 10 0,0
20.11.2019 09:00:00 11,0 10,0 2 1 - - 10 -
20.11.2019 08:00:00 11,0 10,0 2 1 - - 10 -
20.11.2019 07:00:00 10,8 8,6 5 3 ENE 1012,5 10 -
20.11.2019 06:00:00 11,0 9,0 2 1 - - 10 -
20.11.2019 05:00:00 11,0 9,0 5 3 E - 10 -
20.11.2019 04:00:00 11,0 9,3 5 3 NNE 1012,6 10 0,0
20.11.2019 03:00:00 11,0 10,0 8 4 ENE - 10 -
20.11.2019 02:00:00 11,0 10,0 5 3 NE - 10 -
20.11.2019 01:00:00 11,3 9,7 5 3 SE 1013,2 10 -
20.11.2019 00:00:00 12,0 9,0 9 5 O - 10 -
19.11.2019 23:00:00 13,0 8,0 4 2 NE - 10 -
19.11.2019 22:00:00 12,7 8,3 5 3 ENE 1013,2 10 0,0
19.11.2019 21:00:00 13,0 9,0 5 3 S - 10 -
19.11.2019 20:00:00 14,0 8,0 11 6 SE - 10 -
19.11.2019 19:00:00 13,9 7,0 13 7 ESE 1013,7 10 -
19.11.2019 18:00:00 15,0 9,0 15 8 SE - 10 -
19.11.2019 17:00:00 15,0 9,0 13 7 SE - 10 -
19.11.2019 16:00:00 15,8 10,1 21 11 SE 1013,2 10 0,0
19.11.2019 15:00:00 16,0 10,0 24 13 SE - 10 -
19.11.2019 14:00:00 16,0 11,0 21 11 SE - 10 -
19.11.2019 13:00:00 16,3 10,5 24 13 SE 1013,0 10 -
19.11.2019 12:00:00 16,0 10,0 22 12 SE - 10 -
19.11.2019 11:00:00 15,0 10,0 21 11 SE - 10 -
19.11.2019 10:00:00 14,0 10,2 18 10 SE 1013,9 10 0,0
19.11.2019 09:00:00 13,0 11,0 21 11 SSE - 6 -
19.11.2019 08:00:00 13,0 10,0 31 17 SE - 10 -
19.11.2019 07:00:00 13,8 9,6 22 12 SE 1012,7 10 -
19.11.2019 06:00:00 14,0 10,0 28 15 SE - 10 -
19.11.2019 05:00:00 - - - - - - - -
19.11.2019 04:00:00 - - - - - - - -
19.11.2019 03:00:00 14,0 10,0 24 13 SSE - 10 -
19.11.2019 02:00:00 14,0 10,0 34 18 SE - 10 -
19.11.2019 01:00:00 13,7 9,3 28 15 SE 1013,0 10 -
19.11.2019 00:00:00 13,0 10,0 15 8 S - 10 -
18.11.2019 23:00:00 15,0 8,0 26 14 SE - 10 -
18.11.2019 22:00:00 14,4 8,1 28 15 SE 1013,0 10 0,0
18.11.2019 21:00:00 14,0 8,0 24 13 SE - 10 -
18.11.2019 20:00:00 14,0 9,0 24 13 SE - 10 -
18.11.2019 19:00:00 13,5 9,7 26 14 SE 1013,2 10 -
18.11.2019 18:00:00 13,0 10,0 22 12 SE - 9 -
18.11.2019 17:00:00 14,0 9,0 24 13 SE - 10 -
18.11.2019 16:00:00 13,3 10,0 22 12 SSE 1013,5 6 0,0
18.11.2019 15:00:00 13,0 11,0 18 10 SSE - 10 -
18.11.2019 14:00:00 15,0 10,0 24 13 SE - 10 -
18.11.2019 13:00:00 15,3 9,1 22 12 SSE 1013,8 10 -
18.11.2019 12:00:00 15,0 10,0 24 13 SE - 10 -
18.11.2019 11:00:00 14,0 9,0 21 11 SE - 10 -
18.11.2019 10:00:00 13,1 8,6 18 10 SSE 1014,2 10 0,0
18.11.2019 09:00:00 13,0 9,0 9 5 ESE - 10 -
18.11.2019 08:00:00 11,0 8,0 13 7 SE - 10 -
18.11.2019 07:00:00 10,3 8,5 8 4 ESE 1013,6 10 -
18.11.2019 06:00:00 10,0 8,0 8 4 SO - 5 -
18.11.2019 05:00:00 11,0 7,0 13 7 SE - 10 -
18.11.2019 04:00:00 10,6 7,3 9 5 SE 1012,1 10 0,0
18.11.2019 03:00:00 10,0 7,0 15 8 SE - 10 -
18.11.2019 02:00:00 10,0 7,0 11 6 SE - 10 -
18.11.2019 01:00:00 9,8 6,7 9 5 SE 1011,6 10 -
18.11.2019 00:00:00 9,0 7,0 8 4 SSE - 10 -
17.11.2019 23:00:00 9,0 8,0 8 4 ESE - 10 -
17.11.2019 22:00:00 8,6 6,7 4 2 - 1010,4 10 0,0
17.11.2019 21:00:00 10,0 7,0 8 4 E - 10 -
17.11.2019 20:00:00 10,0 8,0 8 4 ESE - 10 -
17.11.2019 19:00:00 10,6 8,9 5 3 SSE 1008,9 10 -
17.11.2019 18:00:00 12,0 9,0 4 2 - - 10 -
17.11.2019 17:00:00 12,0 10,0 8 4 O - 10 -
17.11.2019 16:00:00 12,7 11,4 11 6 S 1005,6 6 0,0
17.11.2019 15:00:00 14,0 10,0 18 10 SSE - 10 -
17.11.2019 14:00:00 15,0 12,0 18 10 SSE - 10 -
17.11.2019 13:00:00 13,6 11,0 16 9 SSE 1003,1 10 -
17.11.2019 12:00:00 15,0 10,0 24 13 SSE - 10 -
17.11.2019 11:00:00 15,0 11,0 21 11 SSE - 10 -
17.11.2019 10:00:00 14,5 10,4 22 12 SSE 1003,9 10 0,0
17.11.2019 09:00:00 15,0 10,0 26 14 S - 10 -
17.11.2019 08:00:00 16,0 13,0 22 12 S - 8 -
17.11.2019 07:00:00 15,3 13,0 41 22 SE 1001,3 7 -
17.11.2019 06:00:00 16,0 14,0 35 19 SSE - 8 -
17.11.2019 05:00:00 17,0 13,0 46 25 SE - 6 -
17.11.2019 04:00:00 17,7 12,6 50 27 SE 1000,4 7 0,0
17.11.2019 03:00:00 17,0 12,0 41 22 SE - 4,0 -
17.11.2019 02:00:00 18,0 12,0 39 21 SE - 10 -
17.11.2019 01:00:00 18,8 11,2 39 21 SE 1002,4 9 -
17.11.2019 00:00:00 18,0 11,0 44 24 SE - 10 -
16.11.2019 23:00:00 19,0 11,0 44 24 SE - 10 -
16.11.2019 22:00:00 18,9 11,4 48 26 SE 1003,0 10 0,0
16.11.2019 21:00:00 19,0 12,0 44 24 SE - 10 -
16.11.2019 20:00:00 19,0 12,0 39 21 SE - 10 -
16.11.2019 19:00:00 18,6 11,2 35 19 SE 1004,2 10 -
16.11.2019 18:00:00 18,0 11,0 34 18 SE - 10 -
16.11.2019 17:00:00 15,0 10,0 4 2 - - 10 -
16.11.2019 16:00:00 14,9 9,4 11 6 ENE 1006,8 10 0,0
16.11.2019 15:00:00 14,0 10,0 18 10 E - 10 -
16.11.2019 14:00:00 13,0 11,0 15 8 NNE - 9 -
16.11.2019 13:00:00 13,1 10,2 16 9 ESE 1011,6 7 -
16.11.2019 12:00:00 14,0 10,0 9 5 SSE - 8 -
16.11.2019 11:00:00 15,0 9,0 13 7 SSE - 10 -
16.11.2019 10:00:00 14,6 10,1 9 5 E 1012,4 10 0,0
16.11.2019 09:00:00 13,0 10,0 9 5 ESE - 10 -
16.11.2019 08:00:00 13,0 10,0 2 1 - - 10 -

tt = Temperatura
td = dewpoint
ff = velocità del vento
dd = direzione del vento
ppp = reduced air pressure
vv = visibility
rr = precipitazioni

Stazioni seguenti

WeatherPro
AMSI
MeteoEarth